Volver al catálogo

AUREOLE 2

ActivoCienciaVLEO
NORAD 7003·PAYLOAD·🇫🇷 France

Lanzado Dec 26, 1973 desde Plesetsk Cosmodrome

Loading…

Próximos Pases (próximas 24 horas)

TLE

ActualizadoSource: Space-Track

Época: Sep 14, 2026, 14:01 UTC

1 07003U 73107A   26257.58467686  .00160889  11176-4  43681-3 0  9997
2 07003  73.8853 329.3159 0058683 249.5953 109.8972 15.91043400718598

Sigue AUREOLE 2 en tiempo real con AllMySat

Download on the App Store